Location: Unspecified
(0.0000°N, 0.0000°E)
Time: 12:51:15
(UTC+02:00)

Iridium 84 - Visible Passes

Search period start: 27 August 2014 00:00
Search period end: 06 September 2014 00:00
Orbit: 776 x 779 km, 86.4° (Epoch: 26 August)

Date Brightness Start Highest point End Pass type
(mag) Time Alt. Az. Time Alt. Az. Time Alt. Az.
27 Aug 8.6 20:23:28 10° NW 20:26:48 17° W 20:30:09 10° SW visible
28 Aug 5.8 07:14:44 10° S 07:19:56 75° E 07:25:07 10° N visible
29 Aug 7.3 06:41:51 10° SSE 06:46:29 33° E 06:51:06 10° NNE visible
30 Aug 8.5 06:10:10 10° ESE 06:13:01 15° E 06:15:52 10° NE visible
30 Aug 9.2 20:26:37 10° W 20:26:52 10° W 20:27:07 10° W visible
31 Aug 5.5 07:14:49 10° S 07:20:00 68° W 07:25:09 10° N visible
01 Sep 6.3 06:41:28 10° SSE 06:46:33 54° E 06:51:35 10° NNE visible
02 Sep 7.8 06:08:56 10° SE 06:13:05 24° E 06:17:12 10° NE visible
03 Sep 8.7 05:38:55 10° E 05:39:38 10° E 05:40:21 10° E visible
03 Sep 5.9 07:15:11 10° SSW 07:20:03 41° W 07:24:55 10° NNW visible
04 Sep 5.5 06:41:23 10° S 06:46:36 88° E 06:51:48 10° N visible
05 Sep 6.9 06:08:19 10° SSE 06:13:09 39° E 06:17:57 10° NNE visible
